DELTA 1 DEB, 3975

Orbit data source: Space-Track

DELTA 1 DEB, 3975 is space debris in SSO originally from a launch on Fri, 16 Aug 1968 UTC launched from the Air Force Western Test Range (AFWTR). Debris objects in space refer to the collection of defunct objects orbiting the Earth. Examples of debris include non-operational satellites, rocket bodies, and fragments generated from explosions, collisions, or faulty payload assembly.

Loading next visibility...
DELTA 1 DEB details
Identifier
3975, 1968-069F
Orbit
SSO
Last TLE update20 hours ago
Origin
Flag of USGSFC (US)
ManufacturerUnknown
MissionSpacecraft
Bus & MotorUnknown
MassUnknown
Launch date (UTC)
1968-08-16 (56 years ago)
Launch vehicleUnknown
Launch site
Air Force Western Test Range (AFWTR)
Object type
Payload
Rocket body
Debris
Shape & HBRUnknown
Radar Cross SectionSmall (<0.1 m²)

Expand to show TLE details & history

TLE from 20 hours ago
0 DELTA 1 DEB
1 03975U 68069F   24355.83473095 -.00000013  00000-0  19468-3 0  9997
2 03975 101.6128  56.4280 0043371 141.1375 290.7210 12.53534353579927
Epoch: 2024-12-20T20:02Z
Definitive object data (Epoch: 2024-12-20T20:02:00.754Z)
Latitude68.25443°
Longitude-4.81211°
Altitude1,449.513 km
Speed7.149 km/s
True Right ascension01h 42m 20s
True Declination68° 08' 47"
Sunlit
Object was in daylight at TLE epoch
Visualization TLE readout
Latitude-73.01078°
Longitude164.83552°
Altitude1,492.217 km
Speed7.111 km/s
Apparent Right ascension04h 44m 28s
Apparent Declination-74° 27' 40"
Sunlit
Object is in daylight
Visualization observer readout
Local Sidereal Time15:12:45
Azimuth190.191° SSW
Elevation-53.847°
Doppler factor1
Orbital elements
Apogee altitude1,481.22 km
Perigee altitude1,413.341 km
Semi-major axis7,825.418 km
Eccentricity0.0043371
Inclination101.6128°
RAAN56.428°
Arg. of periapsis141.1375°
True anomaly290.25527°
Mean anomaly290.721°
Eccentric anomaly290.48822°
Mean motion3.13532 °/min
BSTAR0.00019468
Orbital period114.82 mins
Loading maneuver chart data...
Loading historical data...
Loading historical data...
Loading historical data...
Loading historical data...
Loading historical data...
Loading historical data...
Loading historical data...

DELTA 1 DEB Visibility forecast

Observer location: undefined°, undefined

Span
Click to sort rows by Start time (UTC) header in descending order
Start Az.
Max El. time (UTC)
Max El. Az.
Max El.
End time (UTC)
End Az.
15 mins2024-12-21 17:20:20.444Z16.75° NNE2024-12-21 17:27:20.444Z0.862° NNE44.888°2024-12-21 17:35:20.444Z200.385° SSW
9 mins2024-12-21 19:15:20.444Z341.869° N2024-12-21 19:19:20.444Z307.868° NW19.055°2024-12-21 19:24:20.444Z267.685° W
11 mins2024-12-22 02:28:20.444Z102.097° ESE2024-12-22 02:33:20.444Z58.894° ENE24.377°2024-12-22 02:39:20.444Z6.987° NNE
15 mins2024-12-22 04:18:20.444Z171.416° S2024-12-22 04:25:20.444Z237.276° WSW43.391°2024-12-22 04:33:20.444Z338.149° N
4 mins2024-12-22 06:18:20.444Z261.696° W2024-12-22 06:19:20.444Z269.068° W11.652°2024-12-22 06:22:20.444Z290.921° WNW
|